N6GIW Weather Reports


time (UTC)temp
F
wind
direction
speed
knots
gust
knots
rain 1hr
in
rain 24hr
in
rain mn
in
humidity
%
barometer
mb
20260503192503 79 187 8.7 20.0 0.00 0.00 0.00 20 1018.2
20260503192003 80 186 11.3 19.1 0.00 0.00 0.00 20 1018.2
20260503191503 80 182 12.2 19.1 0.00 0.00 0.00 19 1018.3
20260503191003 80 178 11.3 18.2 0.00 0.00 0.00 19 1018.2
20260503190503 80 178 11.3 18.2 0.00 0.00 0.00 19 1018.3
20260503190003 80 207 12.2 18.2 0.00 0.00 0.00 19 1018.3
20260503185004 80 193 10.4 15.6 0.00 0.00 0.00 18 1018.4
20260503184503 79 188 11.3 15.6 0.00 0.00 0.00 19 1018.4
20260503184003 79 201 10.4 15.6 0.00 0.00 0.00 19 1018.5
20260503183503 79 197 12.2 20.0 0.00 0.00 0.00 18 1018.5
20260503182004 79 181 6.1 20.0 0.00 0.00 0.00 18 1018.6
20260503181504 79 199 10.4 17.4 0.00 0.00 0.00 18 1018.5
20260503181004 79 200 9.6 13.9 0.00 0.00 0.00 18 1018.6
20260503180504 79 189 11.3 17.4 0.00 0.00 0.00 18 1018.7
20260503180003 79 206 11.3 17.4 0.00 0.00 0.00 18 1018.7
20260503175503 79 175 7.8 20.0 0.00 0.00 0.00 18 1018.6
20260503175003 80 195 7.8 14.8 0.00 0.00 0.00 17 1018.7
20260503174003 79 208 10.4 20.0 0.00 0.00 0.00 17 1018.6
20260503173503 79 185 11.3 17.4 0.00 0.00 0.00 18 1018.7
20260503172504 79 190 8.7 20.0 0.00 0.00 0.00 17 1018.8
20260503172003 79 206 7.8 14.8 0.00 0.00 0.00 17 1018.8
20260503171504 79 198 10.4 14.8 0.00 0.00 0.00 17 1018.7
20260503171003 79 182 10.4 15.6 0.00 0.00 0.00 17 1018.6
20260503170503 78 177 8.7 17.4 0.00 0.00 0.00 17 1018.7
20260503151004 74 198 0.0 0.9 0.00 0.00 0.00 23 1019.3
20260503150504 73 198 0.0 0.0 0.00 0.00 0.00 23 1019.2
20260503131004 61 221 0.0 0.0 0.00 0.00 0.00 30 1018.4
20260503130504 61 221 0.0 2.6 0.00 0.00 0.00 30 1018.4
20260503110503 65 243 0.0 0.0 0.00 0.00 0.00 25 1017.7
20260503090504 66 220 0.0 0.9 0.00 0.00 0.00 25 1019.0
20260503081503 68 230 0.0 0.0 0.00 0.00 0.00 24 1019.4
20260503081005 68 223 0.0 0.0 0.00 0.00 0.00 24 1019.6
20260503080504 69 223 0.0 0.0 0.00 0.00 0.00 24 1019.6
20260503072504 72 210 0.0 0.0 0.00 0.00 0.00 21 1019.8
20260503072004 72 210 0.0 0.0 0.00 0.00 0.00 21 1019.8
20260503071505 72 213 0.0 0.0 0.00 0.00 0.00 21 1019.6
20260503071004 71 203 0.0 0.0 0.00 0.00 0.00 22 1019.9
20260503070504 71 205 0.0 0.0 0.00 0.00 0.00 21 1019.9
20260503055003 65 190 0.0 0.0 0.00 0.00 0.00 34 1020.0
20260503054504 65 190 0.0 0.0 0.00 0.00 0.00 34 1020.0
20260503054003 65 190 0.0 0.0 0.00 0.00 0.00 35 1020.1
20260503053504 66 190 0.0 0.0 0.00 0.00 0.00 35 1020.1
20260503053003 66 190 0.0 0.0 0.00 0.00 0.00 35 1020.1
20260503052504 66 190 0.0 0.0 0.00 0.00 0.00 36 1020.1
20260503052003 66 190 0.0 0.0 0.00 0.00 0.00 35 1020.2
20260503051504 66 190 0.0 0.0 0.00 0.00 0.00 37 1020.2
20260503051004 67 190 0.0 0.0 0.00 0.00 0.00 38 1020.1
20260503050504 68 190 0.0 0.0 0.00 0.00 0.00 38 1020.1
20260503045503 69 191 0.0 0.0 0.00 0.00 0.00 37 1020.0
20260503045004 69 193 0.0 0.0 0.00 0.00 0.00 37 1019.9
20260503044503 69 193 0.0 0.0 0.00 0.00 0.00 38 1019.8
20260503044004 69 190 0.0 0.0 0.00 0.00 0.00 40 1019.9
20260503043004 69 176 0.0 0.0 0.00 0.00 0.00 41 1019.9
20260503042503 70 175 0.0 0.0 0.00 0.00 0.00 41 1019.7
20260503042004 70 175 0.0 0.0 0.00 0.00 0.00 41 1019.6
20260503041504 70 178 0.0 0.0 0.00 0.00 0.00 41 1019.7
20260503040504 71 180 0.0 0.0 0.00 0.00 0.00 41 1019.6
20260503040003 71 187 0.0 0.0 0.00 0.00 0.00 41 1019.6
20260503034503 72 188 0.0 0.0 0.00 0.00 0.00 39 1019.5
20260503033505 73 199 0.0 0.0 0.00 0.00 0.00 38 1019.4
20260503033004 73 200 0.0 0.0 0.00 0.00 0.00 37 1019.4
20260503032503 74 195 0.0 0.0 0.00 0.00 0.00 37 1019.4
20260503032004 74 196 0.0 0.0 0.00 0.00 0.00 36 1019.3
20260503031003 74 204 0.0 0.0 0.00 0.00 0.00 35 1019.2
20260503030504 75 203 0.0 0.0 0.00 0.00 0.00 34 1019.2
20260503025503 75 205 0.0 0.0 0.00 0.00 0.00 32 1019.0
20260503025004 75 194 0.0 0.0 0.00 0.00 0.00 31 1019.0
20260503024003 76 206 0.0 0.0 0.00 0.00 0.00 29 1018.9
20260503023503 76 204 0.0 0.0 0.00 0.00 0.00 27 1019.0
20260503022503 77 192 0.0 0.0 0.00 0.00 0.00 15 1018.8
20260503021504 78 185 0.9 10.4 0.00 0.00 0.00 14 1018.8
20260503020503 79 183 8.7 13.0 0.00 0.00 0.00 14 1018.9
20260503020004 79 186 8.7 13.9 0.00 0.00 0.00 14 1018.9
20260503015503 79 199 7.0 12.2 0.00 0.00 0.00 14 1018.9
20260503015004 80 185 8.7 12.2 0.00 0.00 0.00 14 1018.9
20260503014505 80 194 6.1 13.0 0.00 0.00 0.00 14 1018.8
20260503014004 80 200 7.8 11.3 0.00 0.00 0.00 14 1018.8
20260503013504 80 200 8.7 12.2 0.00 0.00 0.00 14 1018.8
20260503013004 81 183 7.8 13.9 0.00 0.00 0.00 14 1018.9
20260503012503 81 196 6.1 13.9 0.00 0.00 0.00 13 1018.8
20260503012003 81 198 7.8 13.9 0.00 0.00 0.00 13 1018.8
20260503011504 81 177 7.8 14.8 0.00 0.00 0.00 13 1018.8
20260503011004 82 173 7.8 12.2 0.00 0.00 0.00 13 1018.8
20260503010504 82 160 8.7 14.8 0.00 0.00 0.00 13 1018.8
20260503010004 82 168 7.8 17.4 0.00 0.00 0.00 13 1018.8
20260503005504 82 184 6.1 14.8 0.00 0.00 0.00 13 1018.7
20260503005003 82 165 4.3 13.0 0.00 0.00 0.00 13 1019.1
20260503003503 83 193 8.7 13.9 0.00 0.00 0.00 13 1018.9
20260503003003 83 193 7.0 13.9 0.00 0.00 0.00 13 1018.9
20260503002004 83 205 6.1 11.3 0.00 0.00 0.00 13 1019.0
20260503001003 83 188 6.1 13.0 0.00 0.00 0.00 12 1019.0
20260503000504 83 174 6.1 10.4 0.00 0.00 0.00 12 1019.0
20260503000003 84 164 6.1 12.2 0.00 0.00 0.00 12 1019.0
20260502235504 84 184 7.8 14.8 0.00 0.00 0.00 12 1019.0
20260502235003 84 213 2.6 8.7 0.00 0.00 0.00 11 1019.0
20260502234504 84 220 4.3 8.7 0.00 0.00 0.00 11 1019.1
20260502234005 84 188 7.0 12.2 0.00 0.00 0.00 11 1019.0
20260502233504 85 190 9.6 14.8 0.00 0.00 0.00 11 1019.1
20260502233004 84 176 5.2 12.2 0.00 0.00 0.00 11 1019.2
20260502232504 84 343 1.7 2.6 0.00 0.00 0.00 11 1019.2
20260502231504 84 183 2.6 7.0 0.00 0.00 0.00 10 1019.3
20260502230504 85 109 2.6 8.7 0.00 0.00 0.00 9 1019.3
20260502230004 85 105 6.1 10.4 0.00 0.00 0.00 9 1019.4
20260502225503 85 112 7.8 11.3 0.00 0.00 0.00 9 1019.5
20260502224504 85 94 2.6 7.8 0.00 0.00 0.00 9 1019.6
20260502224003 85 99 6.1 10.4 0.00 0.00 0.00 9 1019.8
20260502223503 85 100 7.0 10.4 0.00 0.00 0.00 9 1019.9
20260502223003 85 108 4.3 11.3 0.00 0.00 0.00 9 1019.9
20260502222504 85 103 6.1 10.4 0.00 0.00 0.00 9 1020.0
20260502222003 85 123 7.8 12.2 0.00 0.00 0.00 9 1020.1
20260502221504 85 119 7.8 13.0 0.00 0.00 0.00 9 1020.1
20260502221004 85 133 2.6 6.1 0.00 0.00 0.00 9 1020.3
20260502220504 85 107 3.5 8.7 0.00 0.00 0.00 10 1020.4
20260502220004 85 114 6.1 13.9 0.00 0.00 0.00 9 1020.1
20260502215503 85 75 5.2 13.0 0.00 0.00 0.00 9 1020.5
20260502215003 84 117 7.0 13.0 0.00 0.00 0.00 9 1020.4
20260502214504 84 128 8.7 12.2 0.00 0.00 0.00 9 1020.4
20260502213503 84 113 7.0 17.4 0.00 0.00 0.00 9 1020.5
20260502213004 84 110 7.8 12.2 0.00 0.00 0.00 10 1020.5
20260502212504 84 63 2.6 10.4 0.00 0.00 0.00 9 1020.7
20260502212004 85 131 11.3 17.4 0.00 0.00 0.00 9 1020.7
20260502211504 85 114 5.2 10.4 0.00 0.00 0.00 9 1020.8
20260502211003 85 117 7.8 17.4 0.00 0.00 0.00 9 1020.7
20260502210503 84 97 5.2 11.3 0.00 0.00 0.00 9 1020.9
20260502210004 84 113 6.1 10.4 0.00 0.00 0.00 9 1021.0
20260502205503 84 112 7.0 11.3 0.00 0.00 0.00 9 1021.2
20260502205005 84 123 5.2 10.4 0.00 0.00 0.00 9 1021.3
20260502204004 85 102 5.2 10.4 0.00 0.00 0.00 9 1021.5
20260502203504 84 139 6.1 10.4 0.00 0.00 0.00 9 1021.6
20260502203004 84 86 6.1 10.4 0.00 0.00 0.00 9 1021.6
20260502202504 83 98 5.2 8.7 0.00 0.00 0.00 9 1021.7
20260502202004 84 158 6.1 14.8 0.00 0.00 0.00 9 1021.9
20260502201504 83 109 7.8 11.3 0.00 0.00 0.00 9 1022.1
20260502201003 84 74 2.6 12.2 0.00 0.00 0.00 9 1022.2
20260502200503 84 115 7.0 10.4 0.00 0.00 0.00 9 1022.2
20260502200003 84 121 4.3 13.0 0.00 0.00 0.00 9 1022.3
20260502195503 84 118 5.2 14.8 0.00 0.00 0.00 9 1022.3
20260502195004 83 86 6.1 10.4 0.00 0.00 0.00 9 1022.3
20260502194503 83 125 6.1 13.9 0.00 0.00 0.00 9 1022.4
20260502193504 83 134 4.3 8.7 0.00 0.00 0.00 9 1022.5